Date String (YYYY-MM-DD hh:mm:ss) UTC,Instrument flags,absolute air pressure of the measurement (hPa),sample flow rate (lpm),inlet stack bypass flow (lpm),air temperature of the measurement (°C),ambient temperature measured by the external sensor (°C),aerosol sample conditioner tube jacket temperature (°C),OPC LED temperature (°C),internal box temperature (°C),relative humidity of the measurement (%),span deviation,mass concentration of particles derived from Lorenz-Mie calculation of OPC scattering (μg/m³),mass concentration of particles derived from Lorenz-Mie calculation of OPC scattering (μg/m³),mass concentration of particles derived from Lorenz-Mie calculation of OPC scattering (μg/m³)
DateTimeUTC,F1_M11,P_M11,Q1_M11,Q2_M11,T1_M11,T2_M11,T3_M11,T4_M11,T5_M11,U1_M11,ZSPAN_M11,X0_M11,X2_M11,X1_M11
2023-09-16 05:00:00,SystemResetWarning,0836.8,5.00,000.00,028.4,026.9,000.0,036.9,029.9,20.8,0000.0,0006.59,0003.96,0003.53
2023-09-16 05:01:00,SystemResetWarning,0836.8,4.99,000.00,028.4,026.9,000.0,036.9,029.9,20.7,0000.0,0006.44,0003.91,0003.53
2023-09-16 05:02:00,SystemResetWarning,0836.8,5.00,000.00,028.4,026.9,000.0,036.9,029.9,20.7,0000.0,0006.31,0003.89,0003.53
2023-09-16 05:03:00,SystemResetWarning,0836.8,5.02,000.00,028.4,026.9,000.0,036.9,029.9,20.6,0000.0,0006.30,0003.89,0003.53
2023-09-16 05:04:00,SystemResetWarning,0836.8,4.99,000.00,028.4,026.9,000.0,036.9,029.9,20.7,0000.0,0006.33,0003.91,0003.54
2023-09-16 05:05:00,SystemResetWarning,0836.8,4.99,000.00,028.4,026.9,000.0,036.9,029.9,20.6,0000.0,0006.31,0003.91,0003.53
2023-09-16 05:06:00,SystemResetWarning,0836.8,5.01,000.00,028.4,026.9,000.0,036.9,029.9,20.6,0000.0,0006.42,0003.91,0003.53
2023-09-16 05:07:00,SystemResetWarning,0836.9,5.01,000.00,028.4,026.9,000.0,036.9,029.9,20.5,0000.0,0006.57,0003.94,0003.54
2023-09-16 05:08:00,SystemResetWarning,0836.9,5.00,000.00,028.4,026.8,000.0,036.9,029.9,20.5,0000.0,0006.51,0003.93,0003.54
2023-09-16 05:09:00,SystemResetWarning,0837.0,5.00,000.00,028.4,026.8,000.0,036.9,029.9,20.5,0000.0,0006.47,0003.91,0003.55
2023-09-16 05:10:00,SystemResetWarning,0836.9,5.00,000.00,028.4,026.9,000.0,036.9,029.9,20.4,0000.0,0006.05,0003.89,0003.55
2023-09-16 05:11:00,SystemResetWarning,0837.0,5.00,000.00,028.4,026.9,000.0,036.8,029.9,20.5,0000.0,0005.98,0003.86,0003.54
2023-09-16 05:12:00,SystemResetWarning,0836.9,5.00,000.00,028.4,026.8,000.0,036.8,029.9,20.4,0000.0,0006.04,0003.86,0003.53
2023-09-16 05:13:00,SystemResetWarning,0836.9,4.99,000.00,028.4,026.8,000.0,036.8,029.9,20.4,0000.0,0006.15,0003.87,0003.53
2023-09-16 05:14:00,SystemResetWarning,0836.9,5.00,000.00,028.4,026.8,000.0,036.8,029.9,20.4,0000.0,0006.05,0003.86,0003.53
2023-09-16 05:15:00,SystemResetWarning,0836.9,5.00,000.00,028.3,026.8,000.0,036.8,029.9,20.5,0000.0,0006.27,0003.85,0003.52
2023-09-16 05:16:00,SystemResetWarning,0836.9,5.01,000.00,028.3,026.8,000.0,036.8,029.9,20.4,0000.0,0006.36,0003.85,0003.52
2023-09-16 05:17:00,SystemResetWarning,0837.0,5.00,000.00,028.3,026.8,000.0,036.8,029.9,20.2,0000.0,0006.46,0003.88,0003.52
2023-09-16 05:18:00,SystemResetWarning,0837.0,5.00,000.00,028.3,026.8,000.0,036.8,029.8,20.2,0000.0,0006.39,0003.86,0003.52
2023-09-16 05:19:00,SystemResetWarning,0837.0,5.00,000.00,028.3,026.8,000.0,036.8,029.8,20.4,0000.0,0006.51,0003.87,0003.51
2023-09-16 05:20:00,SystemResetWarning,0837.0,5.00,000.00,028.3,026.8,000.0,036.8,029.8,20.3,0000.0,0006.57,0003.89,0003.51
2023-09-16 05:21:00,SystemResetWarning,0837.0,5.00,000.00,028.3,026.8,000.0,036.8,029.8,20.3,0000.0,0006.57,0003.91,0003.51
2023-09-16 05:22:00,SystemResetWarning,0836.9,4.99,000.00,028.3,026.8,000.0,036.8,029.9,20.2,0000.0,0006.61,0003.93,0003.51
2023-09-16 05:23:00,SystemResetWarning,0837.0,5.00,000.00,028.3,026.8,000.0,036.8,029.8,20.1,0000.0,0006.76,0003.95,0003.50
2023-09-16 05:24:00,SystemResetWarning,0836.9,5.00,000.00,028.3,026.7,000.0,036.8,029.8,20.0,0000.0,0006.75,0003.96,0003.50
2023-09-16 05:25:00,SystemResetWarning,0836.9,5.00,000.00,028.3,026.7,000.0,036.8,029.8,20.1,0000.0,0006.92,0003.99,0003.49
2023-09-16 05:26:00,SystemResetWarning,0837.0,5.00,000.00,028.3,026.7,000.0,036.8,029.8,20.3,0000.0,0006.75,0003.99,0003.49
2023-09-16 05:27:00,SystemResetWarning,0837.0,5.00,000.00,028.3,026.7,000.0,036.8,029.8,20.3,0000.0,0006.67,0003.98,0003.49
2023-09-16 05:28:00,SystemResetWarning,0837.0,5.00,000.00,028.3,026.7,000.0,036.8,029.8,20.1,0000.0,0006.41,0003.92,0003.48
2023-09-16 05:29:00,SystemResetWarning,0837.0,5.00,000.00,028.3,026.7,000.0,036.8,029.8,19.8,0000.0,0006.39,0003.91,0003.48
2023-09-16 05:30:00,SystemResetWarning,0837.0,5.00,000.00,028.3,026.7,000.0,036.8,029.8,19.9,0000.0,0006.49,0003.91,0003.48
2023-09-16 05:31:00,SystemResetWarning,0837.0,5.00,000.00,028.3,026.7,000.0,036.8,029.8,20.1,0000.0,0006.40,0003.89,0003.48
2023-09-16 05:32:00,SystemResetWarning,0837.0,5.01,000.00,028.3,026.7,000.0,036.8,029.8,20.1,0000.0,0006.33,0003.87,0003.47
2023-09-16 05:33:00,SystemResetWarning,0837.0,5.01,000.00,028.3,026.7,000.0,036.8,029.7,20.4,0000.0,0006.30,0003.86,0003.48
2023-09-16 05:34:00,SystemResetWarning,0837.0,5.00,000.00,028.3,026.7,000.0,036.8,029.8,20.9,0000.0,0006.24,0003.88,0003.49
2023-09-16 05:35:00,SystemResetWarning,0837.0,5.00,000.00,028.3,026.7,000.0,036.8,029.8,20.9,0000.0,0006.18,0003.86,0003.48
2023-09-16 05:36:00,SystemResetWarning,0837.0,5.00,000.00,028.3,026.7,000.0,036.8,029.8,20.4,0000.0,0006.10,0003.83,0003.48
2023-09-16 05:37:00,SystemResetWarning,0837.1,5.00,000.00,028.3,026.7,000.0,036.8,029.8,20.1,0000.0,0005.98,0003.80,0003.48
2023-09-16 05:38:00,SystemResetWarning,0837.1,5.00,000.00,028.3,026.7,000.0,036.8,029.8,20.1,0000.0,0005.93,0003.81,0003.48
2023-09-16 05:39:00,SystemResetWarning,0837.2,5.00,000.00,028.2,026.7,000.0,036.8,029.7,20.3,0000.0,0006.11,0003.86,0003.48
2023-09-16 05:40:00,SystemResetWarning,0837.2,4.99,000.00,028.2,026.7,000.0,036.8,029.7,20.4,0000.0,0006.34,0003.90,0003.48
2023-09-16 05:41:00,SystemResetWarning,0837.1,5.00,000.00,028.2,026.7,000.0,036.8,029.8,20.2,0000.0,0006.21,0003.91,0003.47
2023-09-16 05:42:00,SystemResetWarning,0837.1,5.01,000.00,028.2,026.7,000.0,036.7,029.8,20.4,0000.0,0006.30,0003.92,0003.47
2023-09-16 05:43:00,SystemResetWarning,0837.1,5.01,000.00,028.2,026.7,000.0,036.7,029.7,20.0,0000.0,0007.23,0003.97,0003.47
2023-09-16 05:44:00,SystemResetWarning,0837.1,5.00,000.00,028.2,026.7,000.0,036.7,029.8,20.4,0000.0,0007.58,0004.01,0003.47
2023-09-16 05:45:00,SystemResetWarning,0837.1,5.00,000.00,028.2,026.7,000.0,036.7,029.8,21.1,0000.0,0007.49,0003.98,0003.48
2023-09-16 05:46:00,SystemResetWarning,0837.1,5.00,000.00,028.2,026.7,000.0,036.7,029.7,21.3,0000.0,0007.54,0004.01,0003.49
2023-09-16 05:47:00,SystemResetWarning,0837.1,5.00,000.00,028.2,026.7,000.0,036.7,029.7,20.9,0000.0,0007.57,0004.01,0003.49
2023-09-16 05:48:00,SystemResetWarning,0837.2,5.00,000.00,028.2,026.6,000.0,036.7,029.7,21.2,0000.0,0007.66,0004.01,0003.49
2023-09-16 05:49:00,SystemResetWarning,0837.1,5.00,000.00,028.2,026.7,000.0,036.7,029.7,21.5,0000.0,0007.68,0003.99,0003.50
2023-09-16 05:50:00,SystemResetWarning,0837.1,5.00,000.00,028.2,026.6,000.0,036.7,029.7,21.6,0000.0,0007.63,0003.96,0003.50
2023-09-16 05:51:00,SystemResetWarning,0837.1,5.01,000.00,028.2,026.6,000.0,036.7,029.7,21.2,0000.0,0007.51,0003.93,0003.51
2023-09-16 05:52:00,SystemResetWarning,0837.1,5.00,000.00,028.2,026.6,000.0,036.7,029.7,20.9,0000.0,0007.46,0003.92,0003.52
2023-09-16 05:53:00,SystemResetWarning,0837.1,5.00,000.00,028.2,026.6,000.0,036.7,029.7,21.0,0000.0,0007.55,0003.93,0003.52
2023-09-16 05:54:00,SystemResetWarning,0837.1,4.99,000.00,028.2,026.6,000.0,036.7,029.7,21.3,0000.0,0006.92,0003.91,0003.52
2023-09-16 05:55:00,SystemResetWarning,0837.1,5.00,000.00,028.2,026.6,000.0,036.7,029.7,21.2,0000.0,0006.54,0003.88,0003.52
2023-09-16 05:56:00,SystemResetWarning,0837.2,5.01,000.00,028.2,026.6,000.0,036.7,029.7,21.4,0000.0,0006.62,0003.89,0003.52
2023-09-16 05:57:00,SystemResetWarning,0837.2,5.01,000.00,028.2,026.6,000.0,036.7,029.7,21.4,0000.0,0006.54,0003.90,0003.52
2023-09-16 05:58:00,SystemResetWarning,0837.2,5.01,000.00,028.2,026.6,000.0,036.7,029.7,21.3,0000.0,0006.64,0003.93,0003.53
2023-09-16 05:59:00,SystemResetWarning,0837.2,5.00,000.00,028.2,026.6,000.0,036.7,029.7,21.2,0000.0,0006.53,0003.95,0003.54
